Location: Fouquenies
(49.4624°N, 2.0492°E)
Time: 09:26:15
(UTC+00:00)

CSL-04 Rocket - Pass Details

Date: 03 February 2023
Orbit: 806 x 859 km, 98.8° (Epoch: 23 March)

Event Time Altitude Azimuth Distance (km) Brightness Sun altitude
Exits shadow 18:47:10 35° 96° (E) 1,309 4.1 -19.1°
Maximum altitude 18:48:24 40° 65° (ENE) 1,202 4.0 -19.3°
Drops below altitude 10° 18:53:25 10° 357° (N) 2,451 6.1 -20.1°
Sets 18:55:55 0° 350° (N) 3,398 7.0 -20.5°
